This is the latest recevied weather packets stored in our database for station/object KO4DYK. If no packets are shown the sender has not sent any weather packets the latest 10 day(s).
| Time | Temp. | Humidity | Pressure | Rain* | Wind** | Luminosity | Snow |
|---|---|---|---|---|---|---|---|
| 1777904962 | 20.56° C | 67% | 1018.8 hPa | 0 mm | - | 508 W/m² | - |
| 1777904659 | 20.56° C | 66% | 1018.8 hPa | 0 mm | - | 576 W/m² | - |
| 1777904356 | 20.56° C | 66% | 1018.7 hPa | 0 mm | - | 342 W/m² | - |
| 1777904053 | 20.56° C | 67% | 1018.7 hPa | 0 mm | - | 515 W/m² | - |
| 1777903750 | 20° C | 67% | 1018.6 hPa | 0 mm | - | 503 W/m² | - |
| 1777903445 | 20° C | 68% | 1018.8 hPa | 0 mm | - | 428 W/m² | - |
| 1777903142 | 20° C | 68% | 1018.8 hPa | 0 mm | - | 408 W/m² | - |
| 1777902839 | 20° C | 68% | 1018.9 hPa | 0 mm | - | 400 W/m² | - |
| 1777902536 | 19.44° C | 69% | 1018.9 hPa | 0 mm | - | 363 W/m² | - |
| 1777902233 | 20° C | 70% | 1018.8 hPa | 0 mm | - | 333 W/m² | - |
| 1777901931 | 19.44° C | 70% | 1018.9 hPa | 0 mm | - | 312 W/m² | - |
| 1777901629 | 19.44° C | 71% | 1018.8 hPa | 0 mm | - | 291 W/m² | - |
| 1777901326 | 19.44° C | 70% | 1018.8 hPa | 0 mm | - | 209 W/m² | - |
| 1777901023 | 19.44° C | 71% | 1018.8 hPa | 0 mm | - | 303 W/m² | - |
| 1777900720 | 19.44° C | 71% | 1018.6 hPa | 0 mm | - | 225 W/m² | - |
| 1777900417 | 18.89° C | 72% | 1018.6 hPa | 0 mm | - | 255 W/m² | - |
| 1777900114 | 18.33° C | 73% | 1018.7 hPa | 0 mm | - | 225 W/m² | - |
| 1777899811 | 17.78° C | 74% | 1018.6 hPa | 0 mm | - | 107 W/m² | - |
| 1777899508 | 17.78° C | 74% | 1018.6 hPa | 0 mm | - | 81 W/m² | - |
| 1777899206 | 17.78° C | 74% | 1018.6 hPa | 0 mm | - | 75 W/m² | - |
| 1777898903 | 17.78° C | 74% | 1018.6 hPa | 0 mm | - | 76 W/m² | - |
| 1777898600 | 17.78° C | 74% | 1018.4 hPa | 0 mm | - | 71 W/m² | - |
| 1777898297 | 17.22° C | 74% | 1018.4 hPa | 0 mm | - | 78 W/m² | - |
| 1777897994 | 17.22° C | 74% | 1018.4 hPa | 0 mm | - | 76 W/m² | - |
| 1777897690 | 17.22° C | 74% | 1018.4 hPa | 0 mm | - | 68 W/m² | - |
* Rain latest hour (hover to see other rain measurements)
** Current wind speed in m/s (hover to see current wind gust speed)